Regional Weather Roundup
Issued by NWS

Home | Current Version | Previous Version | Graphics & Text | Print | Product List | Glossary On
Versions: 1 2 3 4 5 6 7 8 9 10 11 12 13 14 15 16 17 18 19 20 21 22 23 24 25 26 27
000
ASUS45 KTFX 240810
RWRMT
MONTANA REGIONAL WEATHER ROUNDUP
NATIONAL WEATHER SERVICE GREAT FALLS MT
200 AM MDT TUE APR 24 2018

NOTE: "FAIR" INDICATES FEW OR NO CLOUDS BELOW 12000 FEET WITH NO
SIGNIFICANT WEATHER AND/OR OBSTRUCTIONS TO VISIBILITY.

MTZ001>007-043-240900-
WEST OF THE DIVIDE

CITY           SKY/WX    TMP DP  RH WIND       PRES   REMARKS
KALISPELL      FAIR      29  24  82 CALM      30.44R
MISSOULA       FAIR      32  24  72 CALM      30.46R
BUTTE          FAIR      27  23  85 S6        30.46S WCI  20
MULLAN PASS    FAIR      33  21  61 SE10      30.40R WCI  25
ANACONDA         N/A     28  23  80 S5        30.48R
DEER LODGE       N/A     28  23  80 CALM      30.49S
HAMILTON         N/A     34  25  69 MISG      30.45S
PLAINS           N/A     32  23  69 CALM      30.42R
RONAN            N/A     32  25  74 NE6       30.45R WCI  26
$$

MTZ008-052>055-240900-
SOUTHWEST MONTANA

CITY           SKY/WX    TMP DP  RH WIND       PRES   REMARKS
BOZEMAN        FAIR      34  28  79 CALM      30.48S
DILLON         FAIR      30  27  88 E6        30.44R WCI  24
ENNIS          CLEAR     30  27  86 NE10      30.47R WCI  21
W YELLOWSTONE  FAIR      25  21  86 NE5       30.39S
THREE FORKS      N/A     28  26  92 CALM      30.42R
TWIN BRIDGES     N/A     34  26  72 N13       30.37R WCI  25
$$

MTZ009-010-012-014-046-048-049-054-240900-
EAST SLOPES AND CENTRAL MONTANA

CITY           SKY/WX    TMP DP  RH WIND       PRES   REMARKS
CUT BANK       FAIR      35  21  56 SW6       30.42S WCI  30
GREAT FALLS    FAIR      30  24  78 S10       30.45F WCI  21
HELENA         FAIR      33  28  81 CALM      30.48R
CHOTEAU          N/A     34  21  60 CALM      30.47R
WHITE SULPHUR    N/A     23  21  93 SE5       30.46F
$$

MTZ011-013-016-021-045-047-050-051-240900-
NORTH CENTRAL MONTANA

CITY           SKY/WX    TMP DP  RH WIND       PRES   REMARKS
HAVRE          FAIR      32  26  78 SW5       30.44S
LEWISTOWN      FAIR      29  27  92 SE5       30.47S
N BAR RANCH    MOCLDY    30  25  80 W6        30.48S WCI  24
$$

MTZ017>020-022>027-061-062-240900-
NORTHEAST MONTANA

CITY           SKY/WX    TMP DP  RH WIND       PRES   REMARKS
GLASGOW        FAIR      34  24  67 E3        30.43S
GLENDIVE       FAIR      35  31  85 NW13      30.45R WCI  26
JORDAN           N/A     35  32  88 W6        30.45R WCI  30
MALTA          CLEAR     32  30  93 W5        30.44R
SIDNEY         FAIR      34  25  69 NW10      30.44R WCI  26
WOLF POINT     FAIR      28  23  81 SW6       30.45R WCI  22
PLENTYWOOD       N/A     36  25  64 CALM      30.44R
POPLAR           N/A     34  23  64 S3        30.46R
SCOBEY           N/A     24  13  63 MISG      30.39R
$$

MTZ028>42-056>058-240900-
SOUTHCENTRAL AND SOUTHEAST MONTANA

CITY           SKY/WX    TMP DP  RH WIND       PRES   REMARKS
BAKER          CLOUDY    34  33  96 VRB3      30.44R
BILLINGS       FAIR      35  34  96 SW9       30.49R WCI  28
LIVINGSTON     FAIR      27  25  92 SW6       30.48S WCI  20
MILES CITY     FAIR      36  35  96 SW8       30.47R WCI  30
BIG TIMBER     FOG       28  28 100 W6        30.50S VSB 1   WCI  22
EKALAKA          N/A     31  28  88 W8        30.36R VSB 0   WCI  24
FORSYTH          N/A     36  36 100 SW3       30.49R
ROUNDUP          N/A     34  30  85 S8        30.34R WCI  27
$$

REGIONAL REPORTS...DAKOTAS

CITY           SKY/WX    TMP DP  RH WIND       PRES   REMARKS
WILLISTON      FAIR      29  22  75 CALM      30.44R
MINOT          FAIR      33  25  72 NW10      30.38R WCI  25
DICKINSON      CLOUDY    38  32  79 N6        30.36S
BEACH          FAIR      36  36 100 W12       30.45R WCI  27
CROSBY         FAIR      28  27  93 W9        30.43R WCI  20
TIOGA          FAIR      30  25  80 CALM      30.42R
WATFORD CITY   FAIR      30  30 100 SW3       30.42R
BISMARCK       RAIN      41  36  82 N21G26    30.34R
GRAND FORKS    CLOUDY    43  36  76 N13       30.26R
FARGO          CLOUDY    49  38  65 N18       30.20F
BUFFALO SD       N/A     36  33  89 N23       30.31  WCI  24
RAPID CITY     LGT RAIN  36  33  89 NW35G41   30.30S WCI  22
$$

REGIONAL REPORTS...WYOMING/IDAHO/WASHINGTON

CITY           SKY/WX    TMP DP  RH WIND       PRES   REMARKS
GILLETTE       LGT SNOW  32  31  96 N16       30.43R FOG     WCI  21
SHERIDAN       FLURRIES  34  33  96 NW10      30.49R WCI  26
BUFFALO WY     FLURRIES  32  30  92 N14       30.45S WCI  22
CODY           FAIR      31  27  85 NW5       30.47S
YELLOWSTONE LA   N/A     20  15  81 CALM      30.41R
IDAHO FALLS    FAIR      33  29  85 N10       30.36S WCI  25
SALMON         FAIR      34  27  75 CALM      30.43R
BOISE          FAIR      49  38  65 SE12      30.28R
SPOKANE        FAIR      48  28  46 E5        30.38R
$$

REGIONAL REPORTS...ALBERTA

CITY           SKY/WX    TMP DP  RH WIND       PRES   REMARKS
CALGARY        CLEAR     37  25  60 SW3       30.31F
CARDSTON         N/A     36  19  51 S3          N/A
EDMONTON       CLEAR     45  25  45 SW9       30.23F
FORT MCMURRAY  PTCLDY    43  23  45 SW6       30.13F
HIGH LEVEL     MOCLDY    36  25  64 S3        29.96F
LETHBRIDGE     CLEAR     37  23  56 S14G21    30.37R WCI  29
LLOYDMINSTER   PTCLDY    37  28  70 SW9       30.29F WCI  31
MEDICINE HAT   CLEAR     34  28  80 SW7       30.38F WCI  28
MILK RIVER       N/A     36  27  69 SW10        N/A  WCI  28
PEACE RIVER    PTCLDY    39  25  56 SW9       30.13S
PINCHER CREEK  CLEAR     37  21  52 W10       30.37S WCI  30
$$

REGIONAL REPORTS...SASKATCHEWAN

CITY           SKY/WX    TMP DP  RH WIND       PRES   REMARKS
CORONACH         N/A     25  18  74 NW5         N/A
CYPRESS HILLS    N/A     36  18  48 W2          N/A
ESTEVAN        PTCLDY    27  21  80 W6        30.41R WCI  20
MOOSE JAW        N/A     28  23  80 SW7         N/A  WCI  21
PRINCE ALBERT  CLEAR     30  23  74 E6        30.37R WCI  24
REGINA         CLEAR     30  23  74 SW5       30.40S
ROCKGLEN         N/A     34  21  60 W3          N/A
SASKATOON      CLEAR     32  25  74 SW8       30.38S WCI  25
SWIFT CURRENT  CLEAR     34  21  60 S12       30.39S WCI  25
VAL MARIE        N/A     25  23  93 N3          N/A
$$




USA.gov is the U.S. government's official web portal to all federal, state and local government web resources and services.